Skip Page Navigation
NASA JPL Caltech
NASA Logo - Jet Propulsion Laboratory + View the NASA Portal
+ Center for Near-Earth Object Studies
JPL Home Earth Solar System Stars & Galaxies Technology
JPL Solar System Dynamics
BODIES ORBITS EPHEMERIDES TOOLS PHYSICAL DATA DISCOVERY FAQ SITE MAP
IMPORTANT: The SSD Announcement email list is now available. Major changes are coming in the near future, including possible hostname and/or URL changes. To be notified of such changes, subscribe to this email list.

Please visit this page for more details.


JPL Small-Body Database Browser
Search: [ help ]  
469596 (2004 EE88)
Classification: Main-belt Asteroid          SPK-ID: 2469596
Ephemeris | Orbit Diagram | Orbital Elements | Mission Design | Physical Parameters | Discovery Circumstances ]

[ show orbit diagram ]
Orbital Elements at Epoch 2458600.5 (2019-Apr-27.0) TDB
Reference: JPL 12 (heliocentric ecliptic J2000)
 Element Value Uncertainty (1-sigma)   Units 
e .1912038423488147 7.696e-08  
a 2.415191985899539 1.7917e-08 au
q 1.953397998185483 1.9064e-07 au
i 8.66027908265373 1.0306e-05 deg
node 181.8440625067665 6.9827e-05 deg
peri 20.37975675182254 8.1925e-05 deg
M 348.6606125334224 4.0225e-05 deg
tp 2458643.683019850061
(2019-Jun-09.18301985)
0.00015346 TDB
period 1370.963572048558
3.75
1.5255e-05
4.177e-08
d
yr
n .2625890339756227 2.9219e-09 deg/d
Q 2.876985973613596 2.1342e-08 au
  Orbit Determination Parameters
   # obs. used (total)      77  
   data-arc span      9471 days (25.93 yr)  
   first obs. used      1993-05-24  
   last obs. used      2019-04-29  
   planetary ephem.      DE431  
   SB-pert. ephem.      SB431-N16  
   condition code      0  
   norm. resid. RMS      .70358  
   source      ORB  
   producer      Otto Matic  
   solution date      2019-Jul-14 11:01:05  

Additional Information
 Earth MOID = .953895 au 
 Jupiter MOID = 2.08275 au 
 T_jup = 3.477 
[ show covariance matrix ]

Ephemeris | Orbit Diagram | Orbital Elements | Mission Design | Physical Parameters | Discovery Circumstances ]

Physical Parameter Table
Parameter Symbol Value Units Sigma Reference Notes
absolute magnitude H 18.1   n/a MPO326965  

469596 (2004 EE88)          Discovered 2004-Mar-14 by Spacewatch at Kitt Peak
Reference: Last Updated: 2016-08-22

Alternate Designations
 2004 EE88 = 2008 GW102 
Ephemeris | Orbit Diagram | Orbital Elements | Mission Design | Physical Parameters | Discovery Circumstances ]
ABOUT SSD CREDITS/AWARDS PRIVACY/COPYRIGHT GLOSSARY LINKS
FirstGov 2019-Dec-11 17:58 UT
(server date/time)  
NASA Home Page
Site Manager:   Ryan S. Park
Webmaster  Alan B. Chamberlin